Other Public Products
Issued by NWS Grand Forks, ND

Home | Current Version | Previous Version | Text Only | Print | Product List | Glossary Off
Versions: 1 2 3 4 5 6 7 8 9 10 11 12 13 14 15 16 17 18 19 20 21 22 23 24 25 26 27 28 29 30 31 32 33 34 35 36 37 38 39 40 41 42 43 44 45 46 47 48 49 50

000
FPUS83 KFGF 310331
OPUFGF
PRAIRIE TO PINES WEATHER ROUNDUP
NATIONAL WEATHER SERVICE EASTERN NORTH DAKOTA/GRAND FORKS ND
1000 PM CDT WED JUL 30 2014

 **SATELLITE DATA USED TO AUGMENT SKY COVER AT AUTOMATED STATIONS**
 *****  WEATHER ACROSS EASTERN NORTH DAKOTA  *****

CITY           SKY/WX    TMP DP  RH WIND       PRES   REMARKS
GRAND FORKS    CLEAR     64  59  83 CALM      30.04R
GRAND FORKS AF CLEAR     61  61 100 W2        30.06R
GRAND CITY NWS   N/A     66 N/A N/A N1          N/A
BUXTON           N/A     70  65  83 CALM        N/A
DEVILS LAKE    CLEAR     64  57  77 CALM      30.07S
FARGO          CLEAR     71  58  63 N5        30.04S
WAHPETON ARPT  CLEAR     63  52  67 W3        30.06S
$$

 *****  WEATHER ACROSS CENTRAL AND WESTERN NORTH DAKOTA  *****

CITY           SKY/WX    TMP DP  RH WIND       PRES   REMARKS
JAMESTOWN      CLEAR     66  58  75 CALM      30.09R
BISMARCK       PTCLDY    71  57  61 NE6       30.10S
MINOT          CLEAR     66  56  70 N3        30.10S
MINOT AFB      CLEAR     63  62  99 W7        30.10R
GARRISON         N/A     65  60  84 N3        30.11S
WILLISTON      CLEAR     73  53  49 E6        30.12S
DICKINSON      CLEAR     68  54  60 E7        30.13S
HETTINGER      CLEAR     65  54  67 CALM      30.15S
$$

 *****  OTHER OBSERVATIONS NORTHEAST NORTH DAKOTA  *****

CITY           SKY/WX    TMP DP  RH WIND       PRES   REMARKS
WALHALLA         N/A     64  64 100 CALM        N/A
LANGDON        FAIR      59  57  94 W3        30.08S
CAVALIER       FAIR      64  59  82 W3        30.04S
GRAFTON        FAIR      64  59  82 W8        30.04S
CANDO          FAIR      63  59  88 NW3       30.09S
FORT TOTTEN      N/A     64  59  85 CALM      29.95S
ROLLA          FAIR      59  59 100 W8        30.12R
RUGBY          FAIR      63  59  88 CALM      30.09S
 ***** THE ABOVE OBSERVATIONS ARE NON NWS ARE NOT QUALITY
        CONTROLLED AND MAY MIS-REPORT RAIN FOR SNOW...
$$

 *****  OTHER OBSERVATIONS SOUTHEAST NORTH DAKOTA *****

CITY           SKY/WX    TMP DP  RH WIND       PRES   REMARKS
COOPERSTOWN    NOT AVBL
VALLEY CITY    FAIR      63  55  77 NW6       30.09R
OAKES          NOT AVBL
GWINNER        CLEAR     66  57  72 CALM      30.09S
SHEYENNE NWR     N/A     63  56  78 CALM      29.95S
BUFFALO          N/A     67  54  63 W3          N/A
WYNDMERE       NOT AVBL
 ***** THE ABOVE OBSERVATIONS ARE NON NWS ARE NOT QUALITY
       CONTROLLED AND MAY MIS-REPORT RAIN FOR SNOW...
$$

  *****  WEATHER ACROSS NORTHERN MINNESOTA  *****

CITY           SKY/WX    TMP DP  RH WIND       PRES   REMARKS
FLAG ISLAND    CLEAR     72  61  68 W9        29.99S
WARROAD        CLEAR     66  61  82 W5        30.02S
ROSEAU           N/A     68  61  77 W6        30.02S
HALLOCK        CLEAR     68  59  73 CALM      30.03S
THF RVR FALLS  CLEAR     64  59  82 W3        30.05S
HALSTAD          N/A     64  59  85 CALM        N/A
FOSSTON        CLEAR     57  52  82 CALM      30.07R
BAUDETTE       CLEAR     69  60  73 W3        30.01R
WASKISH        PTCLDY    70  61  73 W9        30.02S
CROOKSTON      CLEAR     64  57  77 W3        30.05S
$$
  *****  WEATHER ACROSS CENTRAL AND WEST MINNESOTA  *****

CITY           SKY/WX    TMP DP  RH WIND       PRES   REMARKS
BEMIDJI        CLEAR     63  54  74 W3        30.05S
PARK RAPIDS    CLEAR     60  55  83 W5        30.06R
WADENA         CLEAR     61  55  82 CALM      30.06F
DETROIT LAKES  CLEAR     64  59  82 CALM      30.08S
MOORHEAD       CLEAR     70  63  78 CALM      30.06S
FERGUS FALLS   CLEAR     66  55  68 CALM      30.06S
ELBOW LAKE     FAIR      66  59  77 CALM      30.06S
MORRIS MN      CLEAR     63  57  82 CALM      30.07R
STAPLES        CLEAR     61  54  77 W3        30.06S
WHEATON        CLEAR     64  57  77 SW3       30.08S
$$
  *****  WEATHER ELSEWHERE ACROSS MINNESOTA  *****

CITY           SKY/WX    TMP DP  RH WIND       PRES   REMARKS
DULUTH         CLEAR     69  56  62 NW8       29.99R
INTRNTL FALLS  PTCLDY    63  60  90 CALM      29.99R
ELY            PTCLDY    57  55  94 CALM      30.00S
CLOQUET        CLEAR     66  55  68 W7        30.01S
BRAINERD       CLEAR     67  58  72 W6        30.05R
HIBBING        CLEAR     68  56  65 W6        30.01R
ALEXANDRIA     CLEAR     67  59  75 CALM      30.09R
SAINT CLOUD    CLEAR     68  55  63 NW5       30.05R
MINNEAPOLIS    CLEAR     73  57  57 W7        30.04R
$$

  *****  WEATHER ACROSS SOUTH DAKOTA  *****

CITY           SKY/WX    TMP DP  RH WIND       PRES   REMARKS
SIOUX FALLS    CLEAR     66  55  67 CALM      30.10S
BROOKINGS      NOT AVBL
WATERTOWN      CLEAR     67  55  65 CALM      30.10R
HURON          CLEAR     69  57  65 E5        30.08R
SISSETON         N/A     61  58  90 CALM      30.07R
ABERDEEN       CLEAR     65  57  75 NE5       30.09R
MITCHELL       CLEAR     68  57  68 S5        30.09S
PIERRE         MOCLDY    72  56  57 E5        30.05R
MOBRIDGE         N/A     72  59  63 E9        30.07R
RAPID CITY     PTCLDY    64  51  62 N8        30.16R
$$

  *****  SOME WEATHER IN NEARBY STATES *****

CITY           SKY/WX    TMP DP  RH WIND       PRES   REMARKS
GLASGOW MT     CLEAR     78  45  30 SE10      30.05S
GREAT FALLS MT CLOUDY    80  40  23 SW14      30.10R
CHEYENNE WY    CLOUDY    58  54  86 SW8       30.35F
SCOTTSBLUFF NE MOCLDY    68  58  70 SW8       30.22S
OMAHA NE       PTCLDY    69  58  67 CALM      30.11R
DES MOINES IA  CLEAR     70  55  59 NW5       30.09R
DAVENPORT IA   CLEAR     62  59  90 NW3       30.06R
CHICAGO IL     PTCLDY    66  55  67 E5        30.03R
EAU CLAIRE WI  CLEAR     62  62 100 SW3       30.01S
LA CROSSE WI   CLEAR     70  62  76 S3        30.02R
$$

  *****  SOME NATIONAL WEATHER *****

CITY           SKY/WX    TMP DP  RH WIND       PRES   REMARKS
LA GUARDIA NY  PTCLDY    73  57  57 SW9       30.04S
RALEIGH NC     MOCLDY    70  65  84 CALM      30.09S
ATLANTA GA     MOCLDY    77  56  48 E7        30.05R
NEW ORLEANS LA PTCLDY    80  61  52 NE8       30.02R
OKLAHOMA CITY  CLOUDY    71  67  87 NE6       30.00R
ALBUQUERQUE NM MOCLDY    72  57  59 E32G44    30.15R
SALT LAKE CITY PTCLDY    75  53  46 E9        30.15R
LOS ANGELES CA PTCLDY    70  62  76 W12       29.90S
BOISE ID       PTCLDY    85  45  24 E8G21     30.06S
SEATTLE WA     PTCLDY    79  48  33 N12       30.09F
$$

*** WEATHER ACROSS MANITOBA...SASKATCHEWAN AND ONTARIO ***
                ***ONTARIO***

CITY           SKY/WX    TMP DP  RH WIND       PRES   REMARKS
GERALDTON      CLOUDY    57  52  82 CALM      29.93S
THUNDER BAY    MOCLDY    57  55  94 NW2       29.93
SIOUX LOOKOUT  CLEAR     54  52  94 CALM      29.99R
TORONTO        MOCLDY    64  54  68 NW9       29.99R
BIG TROUT LK   CLEAR     61  45  55 N8        29.97R
PICKLE LAKE    NOT AVBL
DRYDEN         CLEAR     66  52  59 N6        29.99S
KENORA         CLOUDY    70  54  56 N3        30.02R
$$
                *** MANITOBA***

CITY           SKY/WX    TMP DP  RH WIND       PRES   REMARKS
BRANDON        PTCLDY    64  59  82 W7        30.08S
DAUPHIN        CLEAR     66  61  82 W7        30.06S
ISLAND LAKE    CLEAR     68  52  56 N3        30.05R
PILOT MOUND      N/A     66  57  72 W6          N/A
THE PAS        CLOUDY    73  61  64 SE3       30.03S
THOMPSON       PTCLDY    64  59  82 CALM      30.04R
WINNIPEG       MOCLDY    64  61  88 NW6       30.02S
LYNN LAKE      CLEAR     75  52  43 SE2       30.05S
CHURCHILL      PTCLDY    57  46  67 SE8       30.12R
GILLAM         CLOUDY    64  52  63 E5        30.08S
$$
                ***SASKATCHEWAN***

CITY           SKY/WX    TMP DP  RH WIND       PRES   REMARKS
ESTEVAN        MOCLDY    66  61  82 E2        30.12F
KINDERSLEY     MOCLDY    73  70  88 E9        30.03R
LLOYDMINSTER   PTCLDY    72  64  78 E9        30.05S
PRINCE ALBERT  MOCLDY    68  64  88 NE5       30.07
REGINA         MOCLDY    72  59  64 SE12      30.08S


USA.gov is the U.S. government's official web portal to all federal, state and local government web resources and services.